When you browse on this site, cookies collect data to enhance your experience and personalize the content and advertising you see.
Visit our Privacy Policy to learn more. By continuing to use the site, you agree to this use of cookies and data.
  • In Hungary
  • List of Countries
  • For 7 days
  • Water Temperature
  • Satellite Maps
  • Weather Map
  • News
  • Weather Widgets
  • user-avatar
    Login

    Hourly Weather Grabonovo

    Today, 17 November, Saturday

    Time Temperature Precipitation Wind Pressure Humidity
    00:00 -2°C° 0 mm 1 mps 765 mmHg 25%
    01:00 -2°C° 0 mm 1 mps 765 mmHg 26%
    02:00 -2°C° 0 mm 1 mps 765 mmHg 26%
    03:00 -2°C° 0 mm 1 mps 765 mmHg 26%
    04:00 -4°C° 0 mm 2 mps 764 mmHg 26%
    05:00 -4°C° 0 mm 2 mps 764 mmHg 27%
    06:00 -4°C° 0 mm 2 mps 764 mmHg 27%
    07:00 -4°C° 0 mm 2 mps 763 mmHg 28%
    08:00 -4°C° 0 mm 2 mps 763 mmHg 29%
    09:00 -4°C° 0 mm 2 mps 763 mmHg 29%
    10:00 -4°C° 0 mm 3 mps 762 mmHg 29%
    11:00 -1°C° 0 mm 3 mps 762 mmHg 28%
    12:00 0°C° 0 mm 3 mps 761 mmHg 28%
    13:00 -1°C° 0 mm 4 mps 760 mmHg 30%
    14:00 -1°C° 0 mm 4 mps 760 mmHg 31%
    15:00 -1°C° 0 mm 4 mps 759 mmHg 33%
    16:00 -2°C° 0 mm 4 mps 758 mmHg 35%
    17:00 -2°C° 0 mm 4 mps 757 mmHg 37%
    18:00 -3°C° 0 mm 4 mps 757 mmHg 39%
    19:00 -4°C° 0 mm 5 mps 756 mmHg 42%
    20:00 -4°C° 0 mm 5 mps 755 mmHg 44%
    21:00 -4°C° 0 mm 5 mps 755 mmHg 46%
    22:00 -4°C° 0 mm 5 mps 754 mmHg 50%
    23:00 -4°C° 0 mm 5 mps 753 mmHg 53%

    Tomorrow, 18 November, Sunday

    Time Temperature Precipitation Wind Pressure Humidity
    00:00 -4°C° 0 mm 5 mps 752 mmHg 57%
    01:00 -4°C° 0.3 mm 5 mps 752 mmHg 66%
    02:00 -4°C° 0.3 mm 5 mps 751 mmHg 74%
    03:00 -4°C° 0.3 mm 5 mps 751 mmHg 83%
    04:00 -4°C° 0.1 mm 5 mps 750 mmHg 84%
    05:00 -4°C° 0.1 mm 5 mps 749 mmHg 84%
    06:00 -3°C° 0.1 mm 4 mps 748 mmHg 85%
    07:00 -3°C° 0 mm 4 mps 748 mmHg 85%
    08:00 -3°C° 0 mm 4 mps 748 mmHg 86%
    09:00 -2°C° 0 mm 3 mps 748 mmHg 87%
    10:00 -1°C° 0 mm 3 mps 748 mmHg 86%
    11:00 -1°C° 0 mm 3 mps 748 mmHg 86%
    12:00 -1°C° 0 mm 3 mps 748 mmHg 86%
    13:00 -1°C° 0 mm 3 mps 748 mmHg 86%
    14:00 +1°C° 0 mm 2 mps 748 mmHg 87%
    15:00 +1°C° 0 mm 2 mps 747 mmHg 87%
    16:00 -1°C° 0 mm 2 mps 748 mmHg 89%
    17:00 -1°C° 0 mm 2 mps 748 mmHg 91%
    18:00 -1°C° 0 mm 2 mps 748 mmHg 92%
    19:00 -1°C° 0 mm 2 mps 748 mmHg 93%
    20:00 -1°C° 0 mm 2 mps 748 mmHg 93%
    21:00 +1°C° 0 mm 1 mps 748 mmHg 94%
    22:00 +1°C° 0 mm 1 mps 748 mmHg 94%
    23:00 +1°C° 0 mm 1 mps 749 mmHg 94%

    Day after tomorrow, 19 November, Monday

    Time Temperature Precipitation Wind Pressure Humidity
    00:00 +1°C° 0 mm 1 mps 749 mmHg 95%
    01:00 +1°C° 0 mm 1 mps 749 mmHg 95%
    02:00 +1°C° 0 mm 1 mps 750 mmHg 94%
    03:00 0°C° 0 mm 0 mps 750 mmHg 94%
    04:00 0°C° 0 mm 0 mps 750 mmHg 94%
    05:00 0°C° 0 mm 0 mps 751 mmHg 94%
    06:00 +1°C° 0 mm 1 mps 751 mmHg 95%
    07:00 +1°C° 0 mm 1 mps 751 mmHg 94%
    08:00 +1°C° 0 mm 1 mps 752 mmHg 94%
    09:00 +1°C° 0 mm 1 mps 752 mmHg 94%
    10:00 +1°C° 0 mm 1 mps 753 mmHg 92%
    11:00 +1°C° 0 mm 1 mps 753 mmHg 90%
    12:00 +1°C° 0 mm 2 mps 754 mmHg 88%
    13:00 +1°C° 0 mm 2 mps 754 mmHg 89%
    14:00 +1°C° 0 mm 2 mps 754 mmHg 89%
    15:00 +1°C° 0 mm 2 mps 754 mmHg 90%
    16:00 -1°C° 0 mm 2 mps 755 mmHg 91%
    17:00 -1°C° 0 mm 2 mps 755 mmHg 93%
    18:00 -2°C° 0 mm 2 mps 755 mmHg 95%
    19:00 -2°C° 0 mm 2 mps 755 mmHg 95%
    20:00 -2°C° 0 mm 2 mps 755 mmHg 95%
    21:00 -2°C° 0 mm 2 mps 756 mmHg 94%
    22:00 -3°C° 0 mm 2 mps 756 mmHg 93%
    23:00 -3°C° 0 mm 2 mps 756 mmHg 91%

    20 November, Tuesday

    Time Temperature Precipitation Wind Pressure Humidity
    00:00 -3°C° 0 mm 2 mps 756 mmHg 90%
    01:00 -3°C° 0 mm 2 mps 756 mmHg 87%
    02:00 -3°C° 0 mm 2 mps 756 mmHg 84%
    03:00 -4°C° 0 mm 2 mps 756 mmHg 81%
    04:00 -4°C° 0 mm 2 mps 756 mmHg 79%
    05:00 -4°C° 0 mm 2 mps 756 mmHg 77%
    06:00 -4°C° 0 mm 2 mps 756 mmHg 74%
    07:00 -4°C° 0 mm 2 mps 756 mmHg 73%
    08:00 -4°C° 0 mm 2 mps 756 mmHg 72%
    09:00 -4°C° 0 mm 2 mps 756 mmHg 71%
    10:00 -3°C° 0 mm 2 mps 756 mmHg 68%
    11:00 -3°C° 0 mm 2 mps 756 mmHg 66%
    12:00 -2°C° 0 mm 2 mps 756 mmHg 64%
    13:00 -2°C° 0 mm 2 mps 755 mmHg 66%
    14:00 -2°C° 0 mm 2 mps 755 mmHg 68%
    15:00 -2°C° 0 mm 2 mps 754 mmHg 69%
    16:00 -2°C° 0 mm 2 mps 754 mmHg 72%
    17:00 -3°C° 0 mm 2 mps 754 mmHg 74%
    18:00 -3°C° 0 mm 2 mps 753 mmHg 76%
    19:00 -3°C° 0 mm 2 mps 753 mmHg 77%
    20:00 -3°C° 0 mm 2 mps 753 mmHg 77%
    21:00 -3°C° 0 mm 2 mps 753 mmHg 78%
    22:00 -1°C° 0 mm 1 mps 752 mmHg 79%
    23:00 -1°C° 0 mm 1 mps 752 mmHg 81%

    21 November, Wednesday

    Time Temperature Precipitation Wind Pressure Humidity
    00:00 -1°C° 0 mm 1 mps 752 mmHg 82%
    01:00 -1°C° 0.1 mm 1 mps 752 mmHg 84%
    02:00 -1°C° 0.1 mm 1 mps 751 mmHg 86%
    03:00 -1°C° 0.1 mm 1 mps 751 mmHg 88%
    04:00 -1°C° 0.1 mm 1 mps 751 mmHg 89%
    05:00 -1°C° 0.1 mm 1 mps 751 mmHg 89%
    06:00 -1°C° 0.1 mm 1 mps 751 mmHg 90%
    07:00 -3°C° 0.1 mm 2 mps 751 mmHg 90%
    08:00 -3°C° 0.1 mm 2 mps 751 mmHg 90%
    09:00 -3°C° 0.1 mm 2 mps 751 mmHg 89%
    10:00 -3°C° 0 mm 2 mps 751 mmHg 88%
    11:00 -3°C° 0 mm 2 mps 751 mmHg 86%
    12:00 -2°C° 0 mm 2 mps 751 mmHg 84%
    13:00 -2°C° 0 mm 2 mps 751 mmHg 84%
    14:00 -2°C° 0 mm 2 mps 751 mmHg 84%
    15:00 -2°C° 0 mm 2 mps 751 mmHg 84%
    16:00 -3°C° 0 mm 2 mps 751 mmHg 85%
    17:00 -3°C° 0 mm 2 mps 751 mmHg 86%
    18:00 -4°C° 0 mm 3 mps 751 mmHg 87%
    19:00 -5°C° 0 mm 3 mps 751 mmHg 88%
    20:00 -5°C° 0 mm 3 mps 751 mmHg 89%
    21:00 -6°C° 0 mm 3 mps 751 mmHg 90%
    22:00 -5°C° 0 mm 2 mps 751 mmHg 91%
    23:00 -5°C° 0 mm 2 mps 751 mmHg 92%

    22 November, Thursday

    Time Temperature Precipitation Wind Pressure Humidity
    00:00 -5°C° 0 mm 2 mps 751 mmHg 93%
    01:00 -5°C° 0 mm 2 mps 751 mmHg 94%
    02:00 -6°C° 0 mm 2 mps 751 mmHg 95%
    03:00 -6°C° 0 mm 2 mps 751 mmHg 95%
    04:00 -6°C° 0 mm 2 mps 751 mmHg 95%
    05:00 -6°C° 0 mm 2 mps 751 mmHg 96%
    06:00 -6°C° 0 mm 2 mps 752 mmHg 96%
    07:00 -6°C° 0 mm 2 mps 752 mmHg 96%
    08:00 -6°C° 0 mm 2 mps 752 mmHg 96%
    09:00 -6°C° 0 mm 2 mps 752 mmHg 95%
    10:00 -5°C° 0 mm 2 mps 752 mmHg 90%
    11:00 -5°C° 0 mm 3 mps 752 mmHg 85%
    12:00 -5°C° 0 mm 3 mps 752 mmHg 80%
    13:00 -5°C° 0 mm 3 mps 752 mmHg 81%
    14:00 -4°C° 0 mm 2 mps 752 mmHg 82%
    15:00 -4°C° 0 mm 2 mps 752 mmHg 82%
    16:00 -4°C° 0 mm 2 mps 752 mmHg 85%
    17:00 -5°C° 0 mm 2 mps 752 mmHg 88%
    18:00 -6°C° 0 mm 3 mps 752 mmHg 90%
    19:00 -6°C° 0 mm 3 mps 752 mmHg 91%
    20:00 -7°C° 0 mm 3 mps 752 mmHg 91%
    21:00 -7°C° 0 mm 3 mps 752 mmHg 91%
    22:00 -7°C° 0 mm 3 mps 752 mmHg 91%
    23:00 -7°C° 0 mm 3 mps 752 mmHg 92%
    Show more